Location: ?????
(33.6267°N, 35.4675°E)
Time: 16:35:28
(UTC+00:00)

Cosmos 1743 Rocket - Pass Details

Date: 12 November 2019
Orbit: 604 x 633 km, 82.6° (Epoch: 09 December)

Event Time Altitude Azimuth Distance (km) Brightness Sun altitude
Rises 14:52:06 0° 1° (N) 2,869 6.8 -3.7°
Reaches altitude 10° 14:54:24 10° 8° (N) 1,964 5.9 -4.2°
Maximum altitude 14:58:34 45° 81° (E) 838 3.8 -5.0°
Drops below altitude 10° 15:02:44 10° 154° (SSE) 1,966 6.1 -5.8°
Sets 15:05:02 0° 161° (SSE) 2,871 7.0 -6.3°
